SL-16 DEB, 54753

Orbit data source: Space-Track

SL-16 DEB, 54753 is space debris in LEO originally from a launch on Fri, 25 Dec 1992 UTC launched from the Tyuratam Missile And Space Complex (TTMTR). Debris objects in space refer to the collection of defunct objects orbiting the Earth. Examples of debris include non-operational satellites, rocket bodies, and fragments generated from explosions, collisions, or faulty payload assembly.

Loading next visibility...
Identifier
54753, 1992-093LZ
Orbit
LEO
Country
Flag of CISCIS
Related business
Manufacturer
Unknown
Mission
Spacecraft
Bus & Motor
Unknown
Mass
Unknown
Launch date (UTC)
1992-12-25 (33 years ago)
Launch vehicle
Unknown
Launch site
Tyuratam Missile And Space Complex (TTMTR)
Object type
Payload
Rocket body
Debris
Shape & HBR
Unknown shape, 0.1 m
Radar Cross Section
RCS unknown

Expand to show TLE details & history
Last TLE update: 13 hours ago

TLE from 13 hours ago
0 SL-16 DEB
1 54753U 92093LZ  26133.35061214  .00001255  00000-0  65665-3 0  9998
2 54753  71.0212 228.2655 0006046 209.2801 150.7984 14.16271419 21875
Epoch: 2026-05-13T08:24Z
TLE epoch observation values (Epoch: 2026-05-13T08:24:52.888Z)
Latitude
-0.00008°
Longitude
-129.06679°
Altitude
844.203 km
Speed
7.429 km/s
True Right ascension
15h 13m 03s
True Declination
0° 00' 00"
Sunlit
Object was in full shadow at epoch
Visualization orbit readout
Latitude
Unknown
Longitude
Unknown
Altitude
Unknown
Speed
Unknown
Apparent Right ascension
Unknown
Apparent Declination
Unknown
Sunlit
N/A
Visualization observer readout
Local Sidereal Time
05:47:27
Azimuth
Unknown
Elevation
Unknown
Doppler factor
Unknown
Orbital elements
Apogee altitude
840.273 km
Perigee altitude
831.55 km
Semi-major axis
7,214.049 km
Eccentricity
0.0006
Inclination
71.0212°
RAAN
228.2655°
Arg. of periapsis
209.2801°
True anomaly
150.83218°
Mean anomaly
150.7984°
Eccentric anomaly
150.81529°
Mean motion
3.54221 °/min
Orbital period
101.63 mins
BSTAR
0.00065665
Loading maneuver chart data...
Computing Atmospheric mass density...
Loading historical data...
Loading historical data...
Loading historical data...
Loading historical data...
Loading historical data...
Loading historical data...
Loading historical data...

Documentation

Showing up to 5 results
|